• In Belarus
  • List of Countries
  • For 7 days
  • Water Temperature
  • Satellite Maps
  • Weather Map
  • Weather Widgets
  • user-avatar
    Login

    Hourly Weather Dhaka

    Today, 19 April, Thursday

    Time Temperature Precipitation Wind Pressure Humidity
    00:00 +30°C° 0 mm 2 mps 753 mmHg 80%
    01:00 +29°C° 0.2 mm 2 mps 753 mmHg 81%
    02:00 +29°C° 0.2 mm 3 mps 753 mmHg 82%
    03:00 +29°C° 0.2 mm 3 mps 753 mmHg 83%
    04:00 +29°C° 0.6 mm 3 mps 753 mmHg 84%
    05:00 +29°C° 0.6 mm 3 mps 753 mmHg 86%
    06:00 +28°C° 0 mm 3 mps 753 mmHg 86%
    07:00 +29°C° 0.1 mm 3 mps 754 mmHg 79%
    08:00 +32°C° 0.1 mm 4 mps 754 mmHg 72%
    09:00 +34°C° 0.1 mm 4 mps 754 mmHg 65%
    10:00 +35°C° 0 mm 4 mps 754 mmHg 58%
    11:00 +37°C° 0 mm 4 mps 753 mmHg 52%
    12:00 +36°C° 0 mm 4 mps 754 mmHg 58%
    13:00 +37°C° 0.1 mm 4 mps 753 mmHg 52%
    14:00 +38°C° 0.1 mm 4 mps 752 mmHg 46%
    15:00 +39°C° 0.1 mm 3 mps 752 mmHg 40%
    16:00 +38°C° 0 mm 4 mps 751 mmHg 43%
    17:00 +36°C° 0 mm 5 mps 751 mmHg 47%
    18:00 +34°C° 0 mm 2 mps 751 mmHg 59%
    19:00 +33°C° 0.8 mm 3 mps 751 mmHg 62%
    20:00 +32°C° 0.8 mm 4 mps 752 mmHg 65%
    21:00 +30°C° 0.8 mm 4 mps 752 mmHg 68%
    22:00 +30°C° 0 mm 4 mps 752 mmHg 71%
    23:00 +30°C° 0 mm 4 mps 752 mmHg 74%

    Tomorrow, 20 April, Friday

    Time Temperature Precipitation Wind Pressure Humidity
    00:00 +29°C° 0 mm 4 mps 752 mmHg 77%
    01:00 +29°C° 0.1 mm 3 mps 752 mmHg 80%
    02:00 +28°C° 0.1 mm 3 mps 752 mmHg 83%
    03:00 +28°C° 0.1 mm 3 mps 752 mmHg 86%
    04:00 +28°C° 0.2 mm 3 mps 752 mmHg 85%
    05:00 +29°C° 0.2 mm 4 mps 752 mmHg 84%
    06:00 +29°C° 0.2 mm 4 mps 752 mmHg 83%
    07:00 +30°C° 0.1 mm 4 mps 753 mmHg 78%
    08:00 +32°C° 0.1 mm 4 mps 753 mmHg 73%
    09:00 +33°C° 0.1 mm 5 mps 754 mmHg 68%
    10:00 +34°C° 0.1 mm 4 mps 753 mmHg 62%
    11:00 +36°C° 0.1 mm 4 mps 753 mmHg 57%
    12:00 +37°C° 0.1 mm 4 mps 753 mmHg 51%
    13:00 +38°C° 0.2 mm 4 mps 752 mmHg 47%
    14:00 +40°C° 0.2 mm 4 mps 752 mmHg 42%
    15:00 +41°C° 0.2 mm 4 mps 751 mmHg 37%
    16:00 +40°C° 0.1 mm 5 mps 751 mmHg 44%
    17:00 +38°C° 0.1 mm 6 mps 751 mmHg 51%
    18:00 +35°C° 0.1 mm 7 mps 750 mmHg 58%
    19:00 +34°C° 0.1 mm 7 mps 751 mmHg 63%
    20:00 +33°C° 0.1 mm 7 mps 751 mmHg 68%
    21:00 +33°C° 0.1 mm 7 mps 752 mmHg 73%
    22:00 +32°C° 0.2 mm 6 mps 752 mmHg 76%
    23:00 +30°C° 0.2 mm 5 mps 752 mmHg 79%

    Day after tomorrow, 21 April, Saturday

    Time Temperature Precipitation Wind Pressure Humidity
    00:00 +30°C° 0.2 mm 4 mps 753 mmHg 82%
    01:00 +30°C° 0 mm 4 mps 752 mmHg 82%
    02:00 +30°C° 0 mm 4 mps 752 mmHg 82%
    03:00 +30°C° 0 mm 4 mps 752 mmHg 81%
    04:00 +30°C° 0 mm 5 mps 752 mmHg 81%
    05:00 +30°C° 0 mm 5 mps 752 mmHg 80%
    06:00 +30°C° 0 mm 5 mps 752 mmHg 79%
    07:00 +30°C° 0 mm 5 mps 753 mmHg 76%
    08:00 +32°C° 0 mm 5 mps 753 mmHg 73%
    09:00 +33°C° 0 mm 6 mps 754 mmHg 70%
    10:00 +34°C° 0 mm 6 mps 754 mmHg 63%
    11:00 +36°C° 0 mm 6 mps 754 mmHg 56%
    12:00 +39°C° 0 mm 7 mps 753 mmHg 49%
    13:00 +40°C° 0 mm 7 mps 752 mmHg 45%
    14:00 +41°C° 0 mm 7 mps 751 mmHg 41%
    15:00 +43°C° 0 mm 7 mps 751 mmHg 37%
    16:00 +41°C° 0.1 mm 7 mps 750 mmHg 41%
    17:00 +39°C° 0.1 mm 7 mps 750 mmHg 46%
    18:00 +38°C° 0.1 mm 7 mps 749 mmHg 51%
    19:00 +35°C° 0.2 mm 7 mps 750 mmHg 57%
    20:00 +34°C° 0.2 mm 7 mps 751 mmHg 64%
    21:00 +33°C° 0.2 mm 6 mps 752 mmHg 71%
    22:00 +32°C° 0.1 mm 6 mps 752 mmHg 73%
    23:00 +32°C° 0.1 mm 5 mps 752 mmHg 75%

    22 April, Sunday

    Time Temperature Precipitation Wind Pressure Humidity
    00:00 +30°C° 0.1 mm 4 mps 753 mmHg 77%
    01:00 +30°C° 0 mm 4 mps 752 mmHg 78%
    02:00 +30°C° 0 mm 4 mps 752 mmHg 79%
    03:00 +30°C° 0 mm 4 mps 752 mmHg 80%
    04:00 +30°C° 0 mm 4 mps 752 mmHg 80%
    05:00 +30°C° 0 mm 5 mps 752 mmHg 80%
    06:00 +30°C° 0 mm 5 mps 752 mmHg 79%
    07:00 +32°C° 0 mm 5 mps 753 mmHg 77%
    08:00 +33°C° 0 mm 5 mps 754 mmHg 74%
    09:00 +33°C° 0 mm 6 mps 755 mmHg 71%
    10:00 +34°C° 0 mm 6 mps 754 mmHg 68%
    11:00 +35°C° 0 mm 6 mps 754 mmHg 66%
    12:00 +35°C° 0 mm 6 mps 754 mmHg 63%
    13:00 +36°C° 0 mm 6 mps 753 mmHg 61%
    14:00 +38°C° 0 mm 6 mps 753 mmHg 58%
    15:00 +37°C° 0 mm 5 mps 752 mmHg 55%
    16:00 +36°C° 0.1 mm 6 mps 751 mmHg 58%
    17:00 +36°C° 0.1 mm 6 mps 751 mmHg 61%
    18:00 +35°C° 0.1 mm 7 mps 750 mmHg 64%
    19:00 +34°C° 6.6 mm 6 mps 751 mmHg 69%
    20:00 +32°C° 6.6 mm 5 mps 753 mmHg 74%
    21:00 +30°C° 6.6 mm 4 mps 754 mmHg 79%
    22:00 +30°C° 0 mm 4 mps 754 mmHg 79%
    23:00 +30°C° 0 mm 5 mps 753 mmHg 80%

    23 April, Monday

    Time Temperature Precipitation Wind Pressure Humidity
    00:00 +30°C° 0 mm 5 mps 753 mmHg 81%
    01:00 +30°C° 0 mm 5 mps 753 mmHg 83%
    02:00 +29°C° 0 mm 4 mps 753 mmHg 86%
    03:00 +29°C° 0 mm 4 mps 752 mmHg 88%
    04:00 +29°C° 0 mm 4 mps 753 mmHg 87%
    05:00 +29°C° 0 mm 4 mps 753 mmHg 86%
    06:00 +29°C° 0 mm 4 mps 753 mmHg 86%
    07:00 +32°C° 0 mm 4 mps 754 mmHg 79%
    08:00 +33°C° 0 mm 4 mps 754 mmHg 72%
    09:00 +34°C° 0 mm 4 mps 755 mmHg 66%
    10:00 +35°C° 0 mm 4 mps 755 mmHg 61%
    11:00 +36°C° 0 mm 3 mps 754 mmHg 57%
    12:00 +37°C° 0 mm 3 mps 754 mmHg 53%
    13:00 +38°C° 0 mm 3 mps 753 mmHg 47%
    14:00 +40°C° 0 mm 3 mps 752 mmHg 40%
    15:00 +42°C° 0 mm 3 mps 751 mmHg 34%
    16:00 +40°C° 0.1 mm 3 mps 751 mmHg 38%
    17:00 +40°C° 0.1 mm 4 mps 751 mmHg 42%
    18:00 +37°C° 0.1 mm 4 mps 751 mmHg 46%
    19:00 +36°C° 0 mm 5 mps 751 mmHg 55%
    20:00 +34°C° 0 mm 5 mps 752 mmHg 65%
    21:00 +33°C° 0 mm 6 mps 753 mmHg 74%
    22:00 +32°C° 0 mm 6 mps 753 mmHg 77%
    23:00 +32°C° 0 mm 5 mps 753 mmHg 79%

    24 April, Tuesday

    Time Temperature Precipitation Wind Pressure Humidity
    00:00 +30°C° 0 mm 5 mps 752 mmHg 82%
    01:00 +30°C° 0 mm 4 mps 752 mmHg 83%
    02:00 +29°C° 0 mm 4 mps 752 mmHg 83%
    03:00 +29°C° 0 mm 4 mps 752 mmHg 84%
    04:00 +29°C° 0 mm 4 mps 752 mmHg 83%
    05:00 +29°C° 0 mm 4 mps 753 mmHg 83%
    06:00 +29°C° 0 mm 4 mps 753 mmHg 82%
    07:00 +32°C° 0 mm 4 mps 754 mmHg 75%
    08:00 +33°C° 0 mm 4 mps 754 mmHg 69%
    09:00 +34°C° 0 mm 5 mps 755 mmHg 62%
    10:00 +36°C° 0 mm 4 mps 754 mmHg 54%
    11:00 +38°C° 0 mm 4 mps 754 mmHg 45%
    12:00 +41°C° 0 mm 4 mps 754 mmHg 36%
    13:00 +42°C° 0 mm 3 mps 753 mmHg 31%
    14:00 +43°C° 0 mm 3 mps 752 mmHg 25%
    15:00 +44°C° 0 mm 3 mps 751 mmHg 20%
    16:00 +42°C° 0 mm 4 mps 751 mmHg 25%
    17:00 +41°C° 0 mm 4 mps 750 mmHg 29%
    18:00 +39°C° 0 mm 5 mps 750 mmHg 34%
    19:00 +37°C° 0 mm 5 mps 751 mmHg 44%
    20:00 +35°C° 0 mm 6 mps 751 mmHg 54%
    21:00 +34°C° 0 mm 6 mps 752 mmHg 64%
    22:00 +33°C° 0 mm 6 mps 752 mmHg 68%
    23:00 +32°C° 0 mm 5 mps 751 mmHg 73%
    Show more